Wind_Speed
15 15 15 15 18 17 14 10 9 9 8 8 6 5 6 5 4 3 3 2 3 3 4 5 6 7 7 8 8 7 8 7 7 7 7 6 5 5 4 3 3 3 3 3 3 3 3 3 3
14 13 14 16 18 14 12 10 10 10 10 8 7 7 7 6 5 4 3 3 3 4 4 5 6 7 8 8 8 8 8 8 8 7 7 6 5 4 3 3 3 3 3 3 2 2 2 3 2
13 11 14 15 16 12 11 10 11 11 10 10 8 8 8 7 6 5 4 4 4 4 5 6 7 7 8 9 9 8 8 8 8 7 7 6 5 4 3 3 3 3 3 2 2 2 2 2 2
11 12 14 15 12 10 10 10 11 10 10 10 9 8 8 8 7 7 6 5 4 4 5 6 7 8 9 9 10 10 9 10 9 8 7 6 5 4 3 3 3 3 2 2 2 2 2 2 2
9 9 16 13 9 8 9 10 11 11 10 11 10 10 9 9 8 8 7 6 5 4 5 6 7 8 9 10 10 10 10 10 9 8 7 6 5 4 4 4 3 2 2 2 1 2 2 2 2
8 11 12 10 7 7 8 10 10 9 10 10 11 10 10 9 9 9 8 7 5 5 5 6 7 7 8 9 10 10 11 11 9 8 7 6 5 4 4 3 3 2 2 2 2 2 2 2 2
7 8 8 7 4 5 7 9 8 8 9 10 10 10 10 10 11 11 10 9 8 6 6 7 7 8 8 9 10 11 11 11 10 9 8 7 6 5 4 4 3 2 2 2 2 2 2 2 2
6 7 8 7 4 5 6 8 9 9 8 9 10 11 12 11 12 12 12 11 10 8 7 7 7 8 9 10 10 12 12 12 11 10 9 8 7 6 5 4 4 3 2 2 2 2 2 2 1
6 7 7 5 2 5 6 7 9 10 8 7 9 11 13 13 13 13 13 12 11 9 8 7 8 8 9 10 11 12 12 12 11 10 9 9 8 6 5 5 4 3 3 2 2 2 2 2 1
5 5 4 1 3 6 8 7 8 10 13 10 9 11 12 13 13 13 13 13 12 10 9 8 9 8 9 10 10 11 12 12 11 11 10 9 8 7 6 5 4 4 3 3 2 2 2 1 1
3 1 1 3 7 7 7 7 7 9 13 14 13 13 13 13 15 15 15 14 12 12 11 9 9 9 9 10 10 11 12 12 12 11 10 9 8 7 6 5 4 4 3 3 2 2 2 1 1
3 4 5 6 7 7 6 7 8 9 12 14 15 14 14 14 15 16 16 15 14 14 13 11 9 9 9 10 10 12 12 13 12 11 11 10 8 7 6 5 5 4 4 3 3 2 2 2 2
4 4 6 7 7 8 8 6 8 10 12 13 15 15 14 15 16 16 17 16 16 16 15 12 11 11 10 10 10 11 12 12 11 10 11 9 8 7 6 5 5 4 3 3 2 2 2 1 1
6 6 7 7 8 8 9 8 8 11 12 13 15 15 16 16 17 17 18 18 18 18 16 14 12 11 10 11 10 10 11 12 11 10 11 10 9 7 6 5 5 4 3 3 3 2 2 1 2
5 5 6 6 7 8 10 10 11 12 13 14 16 16 17 17 17 17 18 19 18 17 15 12 10 10 10 11 11 10 10 12 11 11 11 10 9 8 7 6 5 4 3 3 3 2 2 1 2
5 5 6 7 8 9 10 11 13 14 14 16 17 17 17 17 18 18 18 19 18 17 13 10 9 8 8 9 10 10 11 11 12 11 12 10 10 9 8 7 6 4 4 3 3 2 1 1 1
5 6 7 8 11 10 10 12 14 14 15 17 17 17 17 17 18 18 18 18 17 15 11 8 7 7 7 8 8 10 11 11 11 12 12 12 11 10 9 8 7 5 4 4 4 3 2 1 1
5 7 9 9 11 12 12 12 14 14 17 18 18 18 17 17 18 18 17 16 16 13 9 7 6 7 8 8 8 9 10 10 11 12 12 13 12 11 10 9 8 7 6 5 4 3 3 2 1
10 10 10 11 12 14 13 12 14 15 16 18 19 19 18 18 18 17 16 15 14 11 8 6 5 5 6 8 8 10 10 10 11 12 12 13 12 11 11 10 9 8 7 6 5 5 4 3 2
13 12 11 12 13 15 13 12 14 17 15 17 19 18 18 18 16 15 15 14 12 10 8 6 3 4 5 7 8 10 11 10 11 11 12 13 12 12 12 10 9 9 8 7 7 6 5 5 4
14 14 12 12 13 14 13 13 15 19 16 16 18 17 18 18 16 15 15 14 11 9 7 5 3 3 5 6 8 9 10 10 10 11 12 12 12 13 13 12 10 9 9 8 8 8 7 6 6
15 14 14 14 15 13 12 13 16 18 17 15 16 18 18 17 16 15 13 11 9 8 6 5 4 3 4 5 6 8 9 10 11 10 11 11 12 13 12 12 11 10 10 9 9 9 9 8 7
16 14 15 16 15 13 11 12 15 17 17 15 16 18 17 16 16 14 11 9 8 7 6 5 3 3 3 3 5 8 9 10 10 10 11 12 13 13 13 13 12 11 11 10 10 10 10 10 9
17 16 16 14 13 13 12 12 14 16 17 17 18 17 17 16 14 11 9 8 8 6 5 5 4 3 2 3 4 6 8 9 10 10 11 12 12 13 14 14 14 13 12 12 12 11 12 11 11
18 16 14 13 12 13 11 11 15 17 18 18 18 17 15 15 12 9 8 8 7 7 6 4 4 3 2 3 5 6 7 8 9 10 11 12 12 13 13 14 14 14 14 13 13 13 13 13 13
18 16 14 12 13 13 11 10 16 17 19 18 17 16 15 13 10 8 7 7 7 7 6 4 4 4 3 3 4 5 6 6 7 9 10 12 12 12 13 14 14 14 14 15 14 14 14 15 15
18 18 15 15 14 13 10 11 17 18 18 18 16 14 14 11 9 7 7 7 7 7 5 4 4 3 3 3 4 5 5 5 6 8 9 11 12 13 13 14 15 15 15 16 16 15 15 16 16
19 17 17 18 17 15 14 16 18 19 14 16 15 14 13 11 9 8 8 7 7 5 4 4 4 4 4 4 4 5 6 6 7 8 10 11 12 13 14 14 14 15 15 16 17 17 17 16 17
19 20 19 18 17 15 16 18 19 15 13 15 15 14 13 11 10 9 8 7 7 6 4 4 4 4 4 5 5 5 6 7 8 9 10 12 13 13 14 15 16 17 17 17 17 18 18 18 18
19 19 20 20 20 19 18 19 16 15 15 15 15 14 14 11 10 9 8 7 7 7 6 6 5 5 5 6 7 7 7 8 9 10 11 12 14 14 15 15 16 17 18 18 18 18 19 19 20
Wind_Direction
79 79 79 76 70 67 59 37 28 25 23 23 20 11 2 360 345 327 314 301 269 249 232 227 221 212 208 210 214 215 211 211 213 211 209 204 193 181 172 157 143 133 127 119 110 111 109 117 125
83 81 80 73 69 56 48 25 23 20 20 20 15 6 359 0 351 328 315 303 279 261 242 233 229 221 217 217 221 222 218 219 219 219 216 209 199 187 178 164 149 139 133 123 119 117 121 131 134
90 89 79 67 64 43 34 21 20 17 18 14 12 4 355 354 348 333 318 308 293 268 252 242 236 229 226 228 229 230 226 225 225 225 222 216 211 204 195 177 161 150 137 126 129 133 133 133 136
96 94 83 71 55 38 21 13 13 14 14 10 7 360 357 355 348 341 329 316 305 283 265 254 247 239 235 236 234 236 232 228 227 228 226 223 222 217 205 189 176 162 152 141 135 139 140 141 147
97 79 76 71 57 30 4 8 10 10 10 3 1 357 359 3 354 346 337 324 308 292 277 265 255 245 241 239 237 239 237 230 227 229 230 228 228 227 217 201 190 181 174 161 146 146 146 154 165
88 76 75 75 53 18 359 2 360 359 357 358 356 359 359 3 359 351 343 333 319 293 281 275 259 248 244 240 240 241 237 233 229 230 233 231 230 228 223 214 205 197 184 177 167 158 162 167 178
87 74 81 77 49 3 357 346 343 342 347 349 347 348 352 357 356 350 347 343 331 307 294 281 261 252 246 245 241 239 236 232 230 230 233 235 234 233 227 222 218 198 184 179 171 161 166 170 169
101 88 85 70 12 349 341 329 331 336 337 340 336 338 349 354 350 347 345 342 334 314 297 285 266 255 250 247 242 237 233 231 230 231 233 237 237 234 230 229 223 202 190 176 163 158 161 162 176
112 102 89 78 336 307 309 317 325 329 322 327 330 335 343 346 345 346 344 341 334 321 308 292 275 260 253 248 244 241 233 231 232 234 234 235 236 234 234 232 224 207 194 173 168 168 164 164 185
126 106 85 51 266 277 293 309 326 320 315 314 334 337 337 339 342 342 339 334 331 321 310 296 279 265 256 250 249 245 236 234 233 234 233 233 234 233 233 228 220 211 200 179 174 175 162 162 200
162 145 304 270 271 278 297 314 316 313 313 318 326 334 333 334 335 337 336 333 328 320 311 295 279 267 259 250 249 241 236 238 237 233 232 230 231 230 228 229 215 207 203 189 180 175 167 177 185
205 215 249 266 280 293 302 307 305 308 310 318 322 330 330 330 331 334 334 329 326 320 311 299 283 275 258 249 249 244 236 239 240 229 229 230 227 224 221 221 213 210 206 201 189 180 175 189 191
249 250 261 268 281 292 293 292 300 303 305 313 316 326 329 328 329 331 332 328 322 317 311 302 288 279 264 250 247 244 233 233 234 230 223 222 219 218 221 225 217 219 215 210 204 190 184 184 167
244 257 267 273 281 289 294 292 288 298 303 312 315 322 327 328 327 328 328 325 321 317 310 304 291 282 264 249 244 241 230 228 225 227 224 218 215 218 221 223 224 225 218 213 204 191 188 164 145
265 270 274 276 283 292 295 301 299 300 310 312 313 320 325 326 324 325 325 325 322 318 311 304 289 282 266 249 243 232 227 222 219 222 223 218 214 217 223 228 226 226 222 213 206 190 174 165 146
285 293 305 303 291 291 295 299 298 308 311 309 312 317 320 324 323 325 325 325 322 319 312 301 290 280 259 241 235 226 224 220 218 220 219 218 214 222 227 227 228 231 226 213 205 195 175 168 152
292 303 306 291 285 288 289 292 300 309 309 308 310 315 317 320 322 323 325 326 324 322 314 297 289 271 252 237 233 229 223 219 218 218 217 218 218 222 224 222 226 228 221 217 212 213 199 185 151
283 286 283 274 276 283 286 285 291 296 302 307 311 315 317 319 321 323 325 327 326 326 316 296 281 264 261 243 234 228 221 220 217 215 216 217 216 218 220 220 223 224 221 220 219 217 209 203 197
252 252 252 260 264 273 282 286 285 285 295 305 312 315 318 319 321 324 327 330 329 329 321 301 286 278 260 243 233 223 221 220 215 214 214 213 215 218 220 220 222 223 226 227 223 220 221 220 218
251 254 255 263 266 274 280 284 283 284 291 305 311 314 317 318 322 324 327 328 330 328 320 304 297 280 265 240 231 221 219 219 213 213 213 215 218 219 217 220 225 227 233 232 231 230 228 223 226
254 259 258 261 267 276 285 290 287 288 292 305 311 312 313 317 320 322 322 323 328 328 323 319 300 294 278 241 229 221 222 216 216 217 216 215 218 217 219 224 227 228 233 235 235 232 230 230 235
256 262 262 260 264 270 279 287 289 289 298 300 307 310 314 319 319 319 320 321 326 327 320 310 294 286 282 243 229 224 223 221 219 219 216 216 216 217 221 224 226 229 234 236 235 233 233 236 240
250 252 259 262 264 264 264 272 280 287 295 302 304 308 312 317 318 317 316 316 319 323 318 311 303 287 277 244 226 225 223 224 224 223 222 220 219 222 225 227 229 229 232 234 235 234 235 238 242
251 252 259 263 264 267 264 256 268 279 289 297 301 304 310 315 318 316 315 313 316 317 316 306 298 286 266 240 227 226 229 226 226 224 223 219 219 223 226 231 232 232 232 235 239 241 242 243 246
248 250 256 265 272 273 261 253 258 272 284 289 293 299 306 311 314 314 317 316 311 314 318 305 294 285 266 248 235 234 233 227 224 223 221 221 222 223 227 232 234 235 235 237 242 247 250 249 251
246 244 244 249 272 281 262 250 259 277 285 290 292 296 302 307 309 311 317 317 314 310 309 300 301 288 272 259 247 238 231 228 224 221 223 225 225 227 234 237 238 238 240 241 246 251 253 254 254
235 241 235 238 253 278 278 252 262 275 285 292 292 295 301 306 303 303 314 314 317 309 304 300 301 295 266 253 252 246 238 233 226 224 226 228 230 232 237 241 243 243 245 245 247 251 253 254 255
227 230 230 229 238 249 261 262 265 274 282 291 295 295 297 301 303 305 312 314 315 315 309 305 305 294 282 266 255 249 242 239 237 235 236 236 237 239 241 244 246 245 248 252 254 255 254 257 259
232 224 226 230 230 239 255 261 263 267 283 291 290 289 290 293 300 299 305 309 310 309 310 308 312 310 297 280 269 257 251 251 254 249 248 247 247 248 249 248 248 247 249 254 256 254 255 259 261
234 231 228 229 229 227 247 264 265 269 277 285 288 286 288 285 291 295 298 298 298 303 302 296 303 306 298 289 281 273 266 265 268 262 258 256 254 255 255 254 253 250 252 256 259 261 260 261 264
Height
5889 5889 5889 5888 5887 5888 5889 5891 5890 5889 5888 5887 5886 5884 5883 5883 5884 5885 5882 5881 5881 5881 5881 5882 5882 5883 5884 5885 5885 5886 5887 5887 5888 5888 5888 5888 5889 5889 5889 5889 5889 5889 5889 5889 5889 5889 5889 5889 5889
5891 5892 5890 5888 5887 5889 5892 5892 5891 5890 5889 5888 5887 5886 5884 5884 5883 5882 5881 5881 5881 5881 5881 5881 5882 5883 5883 5884 5885 5886 5887 5887 5888 5888 5888 5889 5889 5889 5889 5889 5889 5889 5889 5889 5889 5890 5890 5890 5890
5892 5893 5891 5889 5890 5893 5895 5894 5892 5891 5890 5889 5887 5887 5885 5884 5883 5883 5882 5881 5881 5881 5881 5881 5881 5882 5883 5884 5885 5886 5886 5887 5888 5888 5889 5889 5889 5889 5890 5889 5889 5889 5889 5890 5890 5890 5890 5890 5890
5894 5893 5892 5893 5894 5896 5897 5895 5894 5893 5891 5890 5888 5887 5886 5885 5884 5883 5882 5881 5881 5881 5880 5880 5881 5882 5882 5883 5884 5885 5886 5887 5887 5888 5889 5889 5889 5889 5890 5890 5890 5890 5890 5890 5890 5890 5890 5891 5891
5895 5892 5891 5894 5898 5898 5898 5897 5895 5894 5892 5891 5889 5887 5886 5885 5884 5883 5882 5881 5881 5880 5880 5880 5880 5881 5881 5882 5883 5884 5885 5886 5887 5888 5888 5889 5889 5889 5889 5890 5890 5890 5890 5890 5890 5890 5890 5891 5891
5895 5894 5895 5897 5899 5900 5899 5897 5896 5894 5893 5891 5889 5888 5886 5885 5884 5883 5881 5881 5880 5879 5879 5878 5878 5879 5880 5881 5882 5883 5884 5885 5886 5887 5888 5889 5889 5889 5889 5890 5890 5890 5890 5890 5890 5890 5890 5891 5891
5897 5895 5895 5898 5900 5901 5900 5898 5897 5895 5894 5892 5890 5888 5886 5885 5884 5882 5881 5880 5879 5878 5877 5877 5877 5878 5879 5880 5881 5882 5883 5884 5885 5887 5888 5888 5889 5889 5889 5889 5890 5890 5890 5890 5890 5890 5890 5891 5891
5898 5898 5897 5900 5902 5902 5901 5899 5897 5895 5894 5892 5890 5887 5885 5884 5883 5882 5881 5879 5878 5877 5876 5876 5876 5876 5877 5878 5879 5880 5882 5883 5885 5886 5887 5888 5888 5889 5889 5889 5889 5889 5890 5890 5890 5890 5891 5891 5891
5898 5900 5900 5902 5904 5903 5901 5900 5897 5895 5893 5891 5889 5888 5886 5884 5883 5881 5880 5878 5876 5875 5874 5874 5874 5875 5875 5876 5878 5879 5881 5882 5884 5885 5886 5887 5888 5888 5888 5889 5889 5889 5890 5890 5890 5890 5891 5891 5891
5899 5900 5901 5902 5903 5902 5900 5898 5898 5895 5891 5887 5886 5887 5886 5884 5883 5881 5879 5877 5875 5874 5873 5872 5872 5872 5874 5875 5876 5878 5879 5881 5882 5884 5885 5886 5887 5888 5888 5889 5889 5890 5890 5890 5890 5891 5891 5891 5892
5899 5900 5901 5902 5902 5901 5900 5898 5897 5895 5891 5888 5887 5887 5885 5884 5882 5880 5878 5875 5874 5872 5871 5870 5870 5871 5872 5873 5874 5876 5877 5879 5881 5882 5884 5885 5886 5887 5888 5888 5889 5889 5890 5890 5890 5891 5891 5891 5891
5899 5900 5900 5901 5900 5899 5898 5898 5896 5895 5892 5889 5887 5886 5885 5883 5881 5879 5877 5874 5872 5871 5869 5867 5867 5868 5870 5871 5873 5874 5876 5877 5879 5880 5882 5884 5885 5886 5887 5888 5889 5889 5889 5890 5890 5891 5891 5891 5891
5898 5899 5899 5899 5899 5898 5897 5896 5896 5894 5891 5889 5887 5886 5884 5882 5880 5878 5875 5873 5871 5869 5867 5866 5864 5866 5867 5869 5870 5872 5873 5875 5877 5879 5881 5882 5884 5886 5887 5888 5888 5889 5889 5890 5890 5891 5891 5891 5891
5896 5897 5898 5898 5897 5897 5896 5894 5893 5891 5889 5888 5886 5884 5882 5880 5878 5876 5874 5871 5869 5866 5864 5863 5863 5864 5865 5866 5868 5870 5871 5873 5875 5877 5879 5881 5883 5885 5886 5887 5888 5889 5889 5890 5890 5891 5891 5891 5892
5894 5895 5896 5896 5896 5895 5895 5894 5892 5889 5887 5887 5885 5883 5881 5878 5876 5874 5872 5869 5866 5864 5862 5861 5861 5861 5863 5864 5866 5868 5869 5872 5874 5876 5878 5880 5882 5884 5885 5887 5887 5888 5889 5890 5890 5891 5891 5892 5892
5893 5894 5894 5895 5894 5895 5895 5893 5891 5888 5886 5885 5883 5881 5879 5877 5874 5872 5869 5866 5863 5861 5859 5859 5859 5860 5860 5862 5864 5866 5868 5870 5872 5874 5877 5879 5881 5883 5885 5886 5887 5888 5889 5889 5890 5891 5891 5892 5892
5891 5893 5894 5895 5894 5894 5894 5892 5889 5886 5885 5884 5882 5879 5877 5875 5872 5870 5867 5864 5861 5859 5857 5857 5857 5858 5859 5860 5862 5864 5866 5869 5871 5873 5875 5878 5880 5882 5884 5885 5886 5887 5888 5889 5890 5891 5891 5892 5892
5892 5894 5895 5895 5894 5893 5892 5890 5889 5886 5884 5882 5880 5878 5875 5873 5871 5868 5865 5862 5859 5857 5856 5855 5856 5857 5858 5860 5861 5863 5865 5867 5869 5871 5874 5877 5879 5881 5883 5884 5886 5887 5888 5888 5889 5890 5891 5892 5892
5890 5892 5893 5893 5893 5891 5890 5889 5887 5884 5883 5880 5878 5875 5873 5871 5868 5866 5863 5861 5858 5856 5855 5855 5854 5856 5857 5858 5860 5862 5864 5866 5868 5870 5873 5875 5877 5880 5881 5883 5885 5886 5887 5888 5889 5890 5890 5891 5892
5887 5888 5890 5891 5890 5889 5887 5886 5885 5882 5880 5878 5876 5874 5872 5869 5867 5864 5862 5860 5858 5856 5855 5854 5854 5856 5857 5858 5859 5861 5863 5864 5866 5869 5871 5874 5876 5878 5880 5882 5884 5885 5886 5887 5888 5889 5890 5891 5891
5884 5885 5887 5887 5887 5886 5885 5884 5883 5880 5877 5875 5874 5872 5870 5867 5865 5863 5861 5859 5857 5855 5854 5854 5854 5855 5856 5856 5858 5860 5861 5863 5865 5867 5870 5872 5874 5876 5878 5881 5882 5883 5885 5886 5887 5888 5889 5890 5891
5880 5882 5883 5884 5884 5883 5884 5883 5881 5878 5874 5872 5872 5870 5868 5866 5863 5861 5859 5857 5856 5855 5854 5854 5854 5855 5855 5856 5857 5859 5860 5862 5864 5866 5868 5870 5873 5875 5877 5879 5881 5882 5883 5884 5886 5887 5888 5889 5890
5877 5879 5880 5880 5880 5880 5880 5881 5879 5875 5872 5870 5870 5868 5866 5865 5862 5860 5858 5857 5856 5855 5854 5853 5853 5854 5855 5855 5856 5858 5859 5861 5863 5865 5867 5869 5871 5873 5876 5877 5879 5880 5882 5883 5884 5885 5886 5887 5888
5873 5875 5875 5876 5876 5877 5878 5878 5877 5874 5872 5870 5869 5867 5865 5863 5861 5859 5857 5856 5855 5854 5854 5853 5853 5853 5854 5855 5856 5857 5858 5860 5862 5863 5865 5867 5869 5871 5873 5875 5877 5878 5880 5881 5882 5883 5884 5885 5886
5870 5872 5873 5873 5874 5874 5874 5874 5874 5872 5871 5869 5867 5865 5864 5862 5860 5858 5857 5856 5855 5854 5853 5853 5853 5853 5854 5854 5855 5856 5857 5859 5860 5862 5864 5866 5868 5869 5871 5873 5875 5876 5878 5879 5880 5881 5882 5883 5884
5866 5868 5871 5872 5872 5870 5870 5871 5871 5869 5868 5867 5866 5863 5862 5860 5859 5857 5856 5855 5854 5853 5853 5853 5853 5853 5853 5854 5854 5855 5856 5857 5859 5860 5862 5864 5866 5868 5869 5871 5872 5874 5875 5876 5878 5879 5879 5880 5881
5862 5864 5868 5869 5869 5869 5869 5869 5867 5866 5865 5864 5863 5862 5860 5859 5858 5856 5856 5855 5854 5853 5852 5852 5853 5853 5853 5853 5854 5855 5856 5857 5858 5859 5861 5862 5864 5866 5867 5868 5870 5871 5872 5873 5874 5875 5876 5877 5878
5857 5861 5863 5865 5866 5868 5868 5865 5863 5862 5862 5862 5861 5860 5859 5858 5857 5856 5855 5854 5853 5853 5852 5852 5852 5853 5853 5853 5853 5854 5855 5856 5857 5858 5859 5860 5862 5863 5864 5865 5867 5868 5869 5870 5871 5872 5873 5873 5874
5853 5856 5858 5861 5863 5865 5865 5865 5859 5857 5859 5860 5858 5858 5857 5857 5856 5855 5855 5854 5853 5853 5852 5852 5852 5852 5852 5852 5853 5854 5854 5855 5856 5856 5857 5858 5859 5860 5861 5862 5863 5864 5865 5866 5867 5868 5869 5869 5870
5849 5851 5854 5856 5858 5860 5861 5861 5856 5855 5856 5857 5856 5855 5855 5855 5855 5854 5854 5854 5853 5853 5852 5852 5852 5852 5852 5852 5852 5853 5853 5854 5854 5854 5854 5855 5856 5857 5858 5859 5859 5860 5861 5862 5863 5864 5864 5865 5866